Weather in Yamoussoukro

Côte d'Ivoire     6°48′35″N   5°15′02″W
temp.,
°C
wind,
m/s
gust,
m/s
humid.,
%
clouds,
%
prec.,
mm/h
press.,
hPa
HPBL,
m
24 july, sat
sat2400:00+21ssw279873 0.3 1016278
03:00+20ssw169949 0.0 1015244
06:00+19sw119991 0.0 101636
09:00+24sw357852 0.0 1016745
12:00+26sw2368100 0.1 10151098
15:00+27s1370100 0.1 1013928
18:00+24se2681100 0.1 1013224
21:00+22sse26895 0.0 1015167
25 july, sun
sun2500:00+20ssw249134 0.0 1016132
03:00+19sw27947 0.0 1015212
06:00+19ssw139586 0.0 101690
09:00+24sw2574100 0.0 1017609
12:00+29sw235685 0.0 10151314
15:00+29s3356100 0.1 10121363
18:00+25sse2776100 0.2 1013381
21:00+23s2681100 0.0 1015338
26 july, mon
mon2600:00+21ssw27885 0.0 1015358
03:00+19s13955 0.0 101589
06:00+19ssw13965 0.0 101684
09:00+24sw247341 0.0 1017762
12:00+28ssw226098 0.0 10161368
15:00+29ssw235896 0.1 10131341
18:00+25s268189 0.4 1013203
21:00+23s268649 0.1 1015226
27 july, tue
tue2700:00+21s278949 0.1 1015322
03:00+20sw289063 0.0 1014373
06:00+21ssw2887100 0.0 1015416
09:00+22sw2684100 0.1 1017451
12:00+25sw3468100 0.1 10161045
15:00+27sw346150 0.0 10131280
18:00+25sw247259 0.1 1013165
21:00+22ssw238137 0.0 101575
28 july, wed
wed2800:00+21s169182 0.0 1015215
03:00+20sw279579 0.0 1013293
06:00+19sw1196100 0.0 101532
09:00+24sw3675100 0.0 1016638
12:00+26wsw2364100 0.0 10151200
15:00+28sw2464100 0.3 10121180
18:00+25nw1175100 0.6 101211
21:00+22s2783100 0.1 1014206